EW1392 Weather Reports


Display with metric or nautical units.
time (UTC)temp
F
wind
direction
speed
MPH
gust
MPH
rain 1hr
in
rain 24hr
in
rain mn
in
humidity
%
barometer
mb
20260510074527 47 26 0.0 0.0 0.00 0.00 0.00 86 1015.4
20260510073027 47 26 0.0 0.0 0.00 0.00 0.00 85 1015.2
20260510071533 47 26 0.0 0.0 0.00 0.00 0.00 85 1015.3
20260510070022 48 26 0.0 0.0 0.00 0.00 0.00 84 1015.4
20260510064521 49 26 0.0 0.0 0.00 0.00 0.00 83 1015.2
20260510063022 49 26 0.0 0.0 0.00 0.00 0.00 82 1015.1
20260510061522 50 26 0.0 0.0 0.00 0.00 0.00 81 1015.3
20260510060034 51 26 0.0 0.0 0.00 0.00 0.00 80 1015.3
20260510054527 52 26 0.0 0.0 0.00 0.00 0.00 79 1015.3
20260510053019 52 26 0.0 0.0 0.00 0.00 0.00 78 1015.5
20260510051519 53 26 0.0 0.0 0.00 0.00 0.00 78 1015.4
20260510050018 54 26 0.0 0.0 0.00 0.00 0.00 77 1015.4
20260510044518 55 26 0.0 0.0 0.00 0.00 0.00 75 1015.5
20260510043017 56 26 0.0 0.0 0.00 0.00 0.00 74 1015.3
20260510041519 57 26 0.0 0.0 0.00 0.00 0.00 72 1015.2
20260510040016 58 26 0.0 0.0 0.00 0.00 0.00 70 1015.0
20260510034521 59 26 0.0 0.0 0.00 0.00 0.00 68 1014.9
20260510033015 61 26 0.0 0.0 0.00 0.00 0.00 67 1014.8
20260510031515 62 26 0.0 0.0 0.00 0.00 0.00 65 1014.6
20260510030019 64 27 0.0 0.0 0.00 0.00 0.00 60 1014.5
20260510024513 65 27 0.0 0.0 0.00 0.00 0.00 60 1014.5
20260510023013 67 27 0.0 0.0 0.00 0.00 0.00 56 1014.6
20260510021513 68 27 0.0 0.0 0.00 0.00 0.00 49 1014.5
20260510020011 69 27 0.0 0.0 0.00 0.00 0.00 48 1014.6
20260510014510 70 27 0.0 0.0 0.00 0.00 0.00 39 1014.6
20260510013008 70 27 0.0 0.0 0.00 0.00 0.00 40 1015.0
20260510011509 71 27 0.0 0.0 0.00 0.00 0.00 40 1015.1
20260510010006 71 27 0.0 2.0 0.00 0.00 0.00 38 1015.2
20260510004505 72 209 0.0 1.0 0.00 0.00 0.00 39 1015.2
20260510003011 73 190 0.0 0.0 0.00 0.00 0.00 43 1015.2
20260510001504 73 190 0.0 1.0 0.00 0.00 0.00 39 1015.3
20260510000004 73 169 0.0 0.0 0.00 0.00 0.00 35 1015.1
20260509234502 73 215 0.0 1.0 0.00 0.00 0.00 35 1015.3
20260509233059 74 215 0.0 3.0 0.00 0.00 0.00 35 1015.4
20260509231604 74 200 0.0 3.0 0.00 0.00 0.00 32 1015.5
20260509230059 75 237 1.0 3.0 0.00 0.00 0.00 31 1015.7
20260509224558 74 196 0.0 1.0 0.00 0.00 0.00 34 1015.9
20260509223053 74 214 0.0 3.0 0.00 0.00 0.00 31 1016.1
20260509221551 74 267 0.0 1.0 0.00 0.00 0.00 31 1016.3
20260509220049 74 17 0.0 3.0 0.00 0.00 0.00 31 1016.6
20260509214547 73 215 0.0 1.0 0.00 0.00 0.00 31 1016.7
20260509213057 73 53 0.0 4.0 0.00 0.00 0.00 32 1016.9
20260509211544 73 207 0.0 4.0 0.00 0.00 0.00 32 1017.0
20260509210058 74 300 0.0 3.0 0.00 0.00 0.00 33 1017.1
20260509204543 74 211 0.0 2.0 0.00 0.00 0.00 34 1017.1
20260509203041 73 187 0.0 2.0 0.00 0.00 0.00 34 1017.3
20260509201538 73 196 1.0 2.0 0.00 0.00 0.00 30 1017.3
20260509200034 72 124 0.0 1.0 0.00 0.00 0.00 32 1017.5
20260509194532 71 160 0.0 2.0 0.00 0.00 0.00 35 1017.6
20260509193027 70 161 0.0 2.0 0.00 0.00 0.00 35 1017.9
20260509191525 69 198 0.0 3.0 0.00 0.00 0.00 36 1018.0
20260509190024 68 202 0.0 3.0 0.00 0.00 0.00 37 1018.1
20260509184519 67 94 1.0 5.0 0.00 0.00 0.00 42 1018.3
20260509183017 66 192 0.0 1.0 0.00 0.00 0.00 40 1018.3
20260509181511 65 195 0.0 2.0 0.00 0.00 0.00 42 1018.4
20260509180010 64 225 0.0 2.0 0.00 0.00 0.00 43 1018.6
20260509174505 63 224 0.0 0.0 0.00 0.00 0.00 54 1018.8
20260509173001 62 177 0.0 1.0 0.00 0.00 0.00 48 1018.9
20260509171559 62 177 0.0 0.0 0.00 0.00 0.00 54 1019.4
20260509170057 61 197 0.0 0.0 0.00 0.00 0.00 56 1019.5
20260509164554 59 197 0.0 2.0 0.00 0.00 0.00 55 1019.3
20260509163051 58 92 0.0 2.0 0.00 0.00 0.00 59 1019.2
20260509161549 58 92 0.0 2.0 0.00 0.00 0.00 58 1019.5
20260509160045 55 90 0.0 1.0 0.00 0.00 0.00 66 1019.6
20260509154544 50 88 0.0 0.0 0.00 0.00 0.00 80 1019.9
20260509153045 46 88 0.0 0.0 0.00 0.00 0.00 90 1020.1
20260509151537 43 88 0.0 0.0 0.00 0.00 0.00 93 1020.3
20260509150035 40 88 0.0 0.0 0.00 0.00 0.00 95 1020.6
20260509144535 38 88 0.0 0.0 0.00 0.00 0.00 95 1020.5
20260509143034 37 88 0.0 0.0 0.00 0.00 0.00 94 1020.5
20260509141533 36 88 0.0 0.0 0.00 0.00 0.00 94 1020.4
20260509140039 36 88 0.0 0.0 0.00 0.00 0.00 93 1020.3
20260509134531 36 88 0.0 0.0 0.00 0.00 0.00 93 1020.4
20260509133028 36 88 0.0 0.0 0.00 0.00 0.00 93 1020.0
20260509131533 36 88 0.0 0.0 0.00 0.00 0.00 93 1020.0
20260509130026 36 88 0.0 0.0 0.00 0.00 0.00 92 1019.7
20260509124524 36 88 0.0 0.0 0.00 0.00 0.00 91 1019.7
20260509123022 37 88 0.0 0.0 0.00 0.00 0.00 91 1019.7
20260509121522 37 88 0.0 0.0 0.00 0.00 0.00 90 1019.6
20260509120024 37 88 0.0 0.0 0.00 0.00 0.00 90 1019.7
20260509114518 38 88 0.0 2.0 0.00 0.00 0.00 90 1019.8
20260509113016 38 88 0.0 0.0 0.00 0.00 0.00 89 1019.7
20260509111514 39 88 0.0 0.0 0.00 0.00 0.00 89 1019.7
20260509110013 39 88 0.0 0.0 0.00 0.00 0.00 89 1019.6
20260509104512 39 88 0.0 0.0 0.00 0.00 0.00 89 1019.7
20260509103011 39 88 0.0 0.0 0.00 0.00 0.00 88 1019.6
20260509101510 40 88 0.0 0.0 0.00 0.00 0.00 87 1019.6
20260509100008 40 88 0.0 0.0 0.00 0.00 0.00 86 1019.8
20260509094509 40 88 0.0 0.0 0.00 0.00 0.00 86 1019.8
20260509093005 41 88 0.0 0.0 0.00 0.00 0.00 85 1019.7
20260509091503 41 88 0.0 1.0 0.00 0.00 0.00 84 1019.8
20260509090002 42 88 0.0 0.0 0.00 0.00 0.00 83 1019.9
20260509084559 42 88 0.0 0.0 0.00 0.00 0.00 82 1019.8
20260509083057 43 88 0.0 0.0 0.00 0.00 0.00 81 1019.9
20260509081555 44 88 0.0 0.0 0.00 0.00 0.00 80 1019.7
20260509080104 44 88 0.0 0.0 0.00 0.00 0.00 80 1019.6